Regional Weather Roundup
Issued by NWS

Home | Current Version | Previous Version | Text Only | Print | Product List | Glossary On
Versions: 1 2 3 4 5 6 7 8 9 10 11 12 13 14 15 16 17 18 19 20 21 22 23 24 25 26 27 28 29 30 31 32 33 34 35 36 37 38 39 40 41 42 43 44 45 46 47 48 49 50
000
ASUS42 KFFC 020403
RWRGA
WEATHER ROUNDUP FOR GEORGIA
NATIONAL WEATHER SERVICE PEACHTREE CITY GA
1200 AM EDT WED SEP 02 2015

NOTE: "FAIR" INDICATES FEW OR NO CLOUDS BELOW 12,000 FEET WITH NO
SIGNIFICANT WEATHER AND/OR OBSTRUCTIONS TO VISIBILITY.

* = USE WITH CAUTION. THE STATIONS MARKED WITH AN ASTERISK MAY NOT
REPORT WEATHER SUCH AS PRECIPITATION, FOG, OR THUNDER AND ARE NOT
QUALITY CONTROLLED BY NWS.

THE REMARK "TC" DENOTES TEMPERATURE READING IN DEGREES CELSIUS.

GAZ001>058-020500-
NORTH GEORGIA

CITY           SKY/WX    TMP DP  RH WIND       PRES   REMARKS
ATLANTA        MOCLDY    77  69  76 CALM      30.12R
ATHENS         CLEAR     72  69  90 CALM      30.11S
CHAMBLEE       PTCLDY    72  70  93 CALM      30.12R
PEACHTREE CITY PTCLDY    71  70  96 CALM      30.12R FOG
ROME           CLEAR     72  69  90 NE3       30.10R
WEST ATLANTA   PTCLDY    73  69  87 CALM      30.11R
GAINESVILLE    CLEAR     73  67  81 CALM      30.16R
CARTERSVILLE   MOCLDY    71  68  90 CALM      30.12R


CITY           SKY/WX    TMP DP  RH WIND       PRES   REMARKS
DALTON*        CLEAR     70  70 100 CALM      30.12R
MARIETTA       PTCLDY    74  69  84 CALM      30.12R
BLAIRSVILLE*     N/A     67  59  76 CALM      30.18S
$$

GAZ059>098-102>109-020500-
CENTRAL GEORGIA

CITY           SKY/WX    TMP DP  RH WIND       PRES   REMARKS
AUGUSTA-BUSH   CLEAR     71  71 100 CALM      30.08S FOG
AUGUSTA-DANIEL CLEAR     79  71  76 SE6       30.10S
COLUMBUS       CLEAR     77  71  82 E3        30.08R
MACON          CLEAR     73  71  93 CALM      30.09S
ROBINS AFB     CLEAR     74  73  94 SE5       30.09S


CITY           SKY/WX    TMP DP  RH WIND       PRES   REMARKS
LAGRANGE*      CLEAR     76  76 100 CALM      30.10S
SYLVANIA*      CLOUDY    79  77  95 CALM      30.11S
MILLEDGEVILLE* CLEAR     73  72  94 CALM      30.09S
$$

GAZ099>101-110>166-020500-
SOUTH GEORGIA

CITY           SKY/WX    TMP DP  RH WIND       PRES   REMARKS
SAVANNAH       MOCLDY    78  75  90 SW5       30.10R
VALDOSTA       CLOUDY    78  77  96 CALM      30.09R
ALMA           MOCLDY    77  75  93 E5        30.09S
ST SIMONS      PTCLDY    78  76  93 E3        30.09S
FT STEWART     PTCLDY    76  74  92 CALM      30.08R
ALBANY         CLEAR     77  73  87 CALM      30.10S
HUNTER AFB     PTCLDY    78  78 100 S2        30.07S
MOODY AFB      LGT RAIN  77  73  88 SE2       30.08S
BRUNSWICK        N/A     73  72  94 CALM      30.10S VSB 1


CITY           SKY/WX    TMP DP  RH WIND       PRES   REMARKS
BAINBRIDGE*    MOCLDY    77  72  83 CALM      30.07S
MOULTRIE*      PTCLDY    77  72  83 CALM      30.09S
VIDALIA*       MOCLDY    79  75  89 S3        30.10S
WAYCROSS*      MOCLDY    79  79 100 CALM      30.09F
DOUGLAS*       MOCLDY    79  75  89 CALM      30.11S
$$


USA.gov is the U.S. government's official web portal to all federal, state and local government web resources and services.